,,PA_Meas_PMT16A,,PR_Meas_QMR101_102,,RH_Meas_QMH101,,SR_Meas_QMS101,,TA_Meas_QMH101,,GenWind,,GenWind,
time,status,PA,status,PR,status,RH,status,SR,status,TA,status,DirAvg,status,SpdAvg,
2010-11-20, 00:00:04,VALID,916.768,VALID,0,VALID,96.947,VALID,0,VALID,19.6248,VALID,7,VALID,0.703906,
2010-11-20, 00:01:04,VALID,916.782,VALID,0,VALID,96.9394,VALID,0,VALID,19.6443,VALID,7,VALID,0.30625,
2010-11-20, 00:02:04,VALID,916.738,VALID,0,VALID,96.9622,VALID,0,VALID,19.6653,VALID,7,VALID,0.107813,
2010-11-20, 00:03:04,VALID,916.748,VALID,0,VALID,96.9394,VALID,0,VALID,19.6428,VALID,7,VALID,1,
2010-11-20, 00:04:04,VALID,916.727,VALID,0,VALID,96.9317,VALID,0,VALID,19.6443,VALID,7,VALID,0.424219,
2010-11-20, 00:05:04,VALID,916.744,VALID,0,VALID,96.9698,VALID,0,VALID,19.6233,VALID,7,VALID,0.761328,
2010-11-20, 00:06:04,VALID,916.7,VALID,0,VALID,96.9241,VALID,0,VALID,19.6248,VALID,7,VALID,1.02813,
2010-11-20, 00:07:04,VALID,916.691,VALID,0,VALID,96.9775,VALID,0,VALID,19.6443,VALID,7,VALID,0.709375,
2010-11-20, 00:08:04,VALID,916.706,VALID,0,VALID,96.9698,VALID,0,VALID,19.6623,VALID,7,VALID,0.792578,
2010-11-20, 00:09:04,VALID,916.669,VALID,0,VALID,96.9775,VALID,0,VALID,19.6638,VALID,7,VALID,1.16094,
2010-11-20, 00:10:04,VALID,916.647,VALID,0,VALID,96.947,VALID,0,VALID,19.6443,VALID,2,VALID,0.702734,
2010-11-20, 00:11:04,VALID,916.619,VALID,0,VALID,96.9698,VALID,0,VALID,19.6443,VALID,5,VALID,0.910547,
2010-11-20, 00:12:04,VALID,916.591,VALID,0,VALID,96.9927,VALID,0,VALID,19.6638,VALID,5,VALID,1.41523,
2010-11-20, 00:13:04,VALID,916.58,VALID,0,VALID,96.9698,VALID,0,VALID,19.6443,VALID,5,VALID,1.09141,
2010-11-20, 00:14:04,VALID,916.554,VALID,0,VALID,97.0156,VALID,0,VALID,19.6428,VALID,5,VALID,0.989062,
2010-11-20, 00:15:04,VALID,916.515,VALID,0,VALID,97.0537,VALID,0,VALID,19.6833,VALID,5,VALID,1.07383,
2010-11-20, 00:16:04,VALID,916.527,VALID,0,VALID,97.0308,VALID,0,VALID,19.6818,VALID,5,VALID,1.08516,
2010-11-20, 00:17:04,VALID,916.53,VALID,0,VALID,97.008,VALID,0,VALID,19.6818,VALID,5,VALID,0.828906,
2010-11-20, 00:18:04,VALID,916.519,VALID,0,VALID,97.0308,VALID,0,VALID,19.6833,VALID,5,VALID,0.856641,
2010-11-20, 00:19:04,VALID,916.508,VALID,0,VALID,97.0461,VALID,0,VALID,19.6638,VALID,5,VALID,0.790625,
2010-11-20, 00:20:04,VALID,916.505,VALID,0.2,VALID,97.0766,VALID,0,VALID,19.7223,VALID,5,VALID,1.15781,
2010-11-20, 00:21:04,VALID,916.501,VALID,0,VALID,97.0537,VALID,0,VALID,19.7223,VALID,5,VALID,1.17344,
2010-11-20, 00:22:04,VALID,916.478,VALID,0,VALID,97.0385,VALID,0,VALID,19.7028,VALID,5,VALID,0.478125,
2010-11-20, 00:23:04,VALID,916.476,VALID,0,VALID,97.0537,VALID,0,VALID,19.7028,VALID,5,VALID,0.0902344,
2010-11-20, 00:24:04,VALID,916.467,VALID,0,VALID,97.0461,VALID,0,VALID,19.6833,VALID,5,VALID,0.059375,
2010-11-20, 00:25:04,VALID,916.436,VALID,0,VALID,97.0461,VALID,0,VALID,19.7028,VALID,5,VALID,0.359766,
2010-11-20, 00:26:04,VALID,916.431,VALID,0,VALID,97.0613,VALID,0,VALID,19.7223,VALID,5,VALID,0.161719,
2010-11-20, 00:27:04,VALID,916.411,VALID,0,VALID,97.0613,VALID,0,VALID,19.7028,VALID,5,VALID,0.6625,
2010-11-20, 00:28:04,VALID,916.401,VALID,0,VALID,97.0156,VALID,0,VALID,19.6833,VALID,5,VALID,0,
2010-11-20, 00:29:04,VALID,916.406,VALID,0,VALID,97.0613,VALID,0,VALID,19.6818,VALID,5,VALID,0.858203,
2010-11-20, 00:30:04,VALID,916.391,VALID,0,VALID,97.0232,VALID,0.107441,VALID,19.6428,VALID,10,VALID,1.33438,
2010-11-20, 00:31:04,VALID,916.374,VALID,0,VALID,97.1147,VALID,0.107441,VALID,19.6818,VALID,12,VALID,0.88125,
2010-11-20, 00:32:04,VALID,916.354,VALID,0,VALID,97.069,VALID,0,VALID,19.6803,VALID,12,VALID,1.18203,
2010-11-20, 00:33:04,VALID,916.317,VALID,0,VALID,97.1223,VALID,0,VALID,19.6998,VALID,12,VALID,1.14844,
2010-11-20, 00:34:05,VALID,916.324,VALID,0,VALID,97.0918,VALID,0.107441,VALID,19.6998,VALID,12,VALID,0.319531,
2010-11-20, 00:35:04,VALID,916.311,VALID,0,VALID,97.0918,VALID,0.107441,VALID,19.7013,VALID,12,VALID,0.0257812,
2010-11-20, 00:36:05,VALID,916.282,VALID,0,VALID,97.1071,VALID,0.107441,VALID,19.7013,VALID,12,VALID,0.202344,
2010-11-20, 00:37:05,VALID,916.276,VALID,0,VALID,97.0994,VALID,0,VALID,19.7013,VALID,12,VALID,0.0015625,
2010-11-20, 00:38:05,VALID,916.281,VALID,0,VALID,97.1147,VALID,0.214882,VALID,19.6998,VALID,12,VALID,0.04375,
2010-11-20, 00:39:05,VALID,916.229,VALID,0,VALID,97.0994,VALID,0.107441,VALID,19.6998,VALID,12,VALID,0.667188,
2010-11-20, 00:40:05,VALID,916.25,VALID,0,VALID,97.0766,VALID,0.107441,VALID,19.6608,VALID,12,VALID,0.900781,
2010-11-20, 00:41:05,VALID,916.248,VALID,0,VALID,97.0994,VALID,0.107441,VALID,19.6803,VALID,12,VALID,0,
2010-11-20, 00:42:05,VALID,916.208,VALID,0,VALID,97.0842,VALID,0.107441,VALID,19.6818,VALID,12,VALID,0.00195313,
2010-11-20, 00:43:05,VALID,916.201,VALID,0,VALID,97.1452,VALID,0.107441,VALID,19.6803,VALID,12,VALID,0,
2010-11-20, 00:44:05,VALID,916.174,VALID,0,VALID,97.1528,VALID,0,VALID,19.7028,VALID,12,VALID,0,
2010-11-20, 00:45:05,VALID,916.202,VALID,0,VALID,97.1452,VALID,0,VALID,19.7013,VALID,12,VALID,0,
2010-11-20, 00:46:05,VALID,916.181,VALID,0,VALID,97.1376,VALID,0,VALID,19.7013,VALID,12,VALID,0,
2010-11-20, 00:47:05,VALID,916.149,VALID,0,VALID,97.1528,VALID,0,VALID,19.7013,VALID,12,VALID,0,
2010-11-20, 00:48:05,VALID,916.171,VALID,0,VALID,97.1604,VALID,0,VALID,19.7613,VALID,12,VALID,0,
2010-11-20, 00:49:05,VALID,916.151,VALID,0,VALID,97.1757,VALID,0,VALID,19.7208,VALID,12,VALID,0,
2010-11-20, 00:50:05,VALID,916.142,VALID,0,VALID,97.1681,VALID,0,VALID,19.7403,VALID,12,VALID,0,
2010-11-20, 00:51:05,VALID,916.136,VALID,0,VALID,97.1681,VALID,0,VALID,19.7403,VALID,12,VALID,0,
2010-11-20, 00:52:05,VALID,916.149,VALID,0,VALID,97.1376,VALID,0,VALID,19.7613,VALID,12,VALID,0,
2010-11-20, 00:53:05,VALID,916.155,VALID,0,VALID,97.1757,VALID,0,VALID,19.7808,VALID,12,VALID,0,
2010-11-20, 00:54:05,VALID,916.163,VALID,0,VALID,97.1681,VALID,0,VALID,19.7808,VALID,12,VALID,0,
2010-11-20, 00:55:05,VALID,916.146,VALID,0,VALID,97.1757,VALID,0,VALID,19.7808,VALID,12,VALID,0,
2010-11-20, 00:56:05,VALID,916.152,VALID,0,VALID,97.1604,VALID,0,VALID,19.8003,VALID,12,VALID,0,
2010-11-20, 00:57:05,VALID,916.128,VALID,0,VALID,97.1604,VALID,0,VALID,19.8003,VALID,12,VALID,0,
2010-11-20, 00:58:05,VALID,916.118,VALID,0,VALID,97.1681,VALID,0,VALID,19.8003,VALID,12,VALID,0.808594,
2010-11-20, 00:59:05,VALID,916.101,VALID,0,VALID,97.1528,VALID,0,VALID,19.7208,VALID,12,VALID,0.807813,
2010-11-20, 01:00:05,VALID,916.088,VALID,0,VALID,97.1681,VALID,0,VALID,19.7403,VALID,12,VALID,0.620703,
2010-11-20, 01:01:05,VALID,916.085,VALID,0,VALID,97.1604,VALID,0,VALID,19.7613,VALID,12,VALID,0.882813,
2010-11-20, 01:02:05,VALID,916.105,VALID,0,VALID,97.1833,VALID,0,VALID,19.7403,VALID,12,VALID,0.800391,
2010-11-20, 01:03:05,VALID,916.071,VALID,0,VALID,97.1681,VALID,0,VALID,19.7208,VALID,12,VALID,1.03437,
2010-11-20, 01:04:05,VALID,916.055,VALID,0,VALID,97.1681,VALID,0,VALID,19.7418,VALID,12,VALID,0.857813,
2010-11-20, 01:05:05,VALID,916.047,VALID,0.2,VALID,97.1833,VALID,0,VALID,19.7208,VALID,12,VALID,0.683984,
2010-11-20, 01:06:05,VALID,916.06,VALID,0,VALID,97.1757,VALID,0,VALID,19.7418,VALID,11,VALID,0.9625,
2010-11-20, 01:07:05,VALID,916.042,VALID,0,VALID,97.1909,VALID,0,VALID,19.7403,VALID,11,VALID,0.750391,
2010-11-20, 01:08:05,VALID,915.989,VALID,0,VALID,97.1909,VALID,0,VALID,19.7403,VALID,11,VALID,0.442969,
2010-11-20, 01:09:05,VALID,915.971,VALID,0,VALID,97.1833,VALID,0,VALID,19.7013,VALID,11,VALID,1.02578,
2010-11-20, 01:10:05,VALID,915.981,VALID,0,VALID,97.2062,VALID,0,VALID,19.7208,VALID,11,VALID,0.194141,
2010-11-20, 01:11:05,VALID,915.925,VALID,0,VALID,97.1757,VALID,0,VALID,19.6818,VALID,32,VALID,1.99531,
2010-11-20, 01:12:05,VALID,915.917,VALID,0,VALID,97.1681,VALID,0,VALID,19.6233,VALID,27,VALID,1.65039,
2010-11-20, 01:13:05,VALID,915.922,VALID,0,VALID,97.2062,VALID,0,VALID,19.6428,VALID,24,VALID,1.33477,
2010-11-20, 01:14:05,VALID,915.901,VALID,0,VALID,97.1604,VALID,0,VALID,19.6233,VALID,23,VALID,1.20742,
2010-11-20, 01:15:05,VALID,915.887,VALID,0,VALID,97.1909,VALID,0,VALID,19.6038,VALID,23,VALID,1.21992,
2010-11-20, 01:16:05,VALID,915.886,VALID,0,VALID,97.1909,VALID,0,VALID,19.6038,VALID,23,VALID,1.39453,
2010-11-20, 01:17:05,VALID,915.845,VALID,0,VALID,97.2138,VALID,0,VALID,19.6038,VALID,23,VALID,0.750391,
2010-11-20, 01:18:05,VALID,915.857,VALID,0,VALID,97.1986,VALID,0,VALID,19.6443,VALID,14,VALID,0.993359,
2010-11-20, 01:19:05,VALID,915.829,VALID,0,VALID,97.1909,VALID,0,VALID,19.6248,VALID,25,VALID,1.02422,
2010-11-20, 01:20:05,VALID,915.833,VALID,0,VALID,97.1986,VALID,0,VALID,19.6053,VALID,25,VALID,1.05859,
2010-11-20, 01:21:05,VALID,915.829,VALID,0.2,VALID,97.2138,VALID,0,VALID,19.6053,VALID,24,VALID,1.55703,
2010-11-20, 01:22:05,VALID,915.814,VALID,0,VALID,97.229,VALID,0,VALID,19.5648,VALID,24,VALID,0.997266,
2010-11-20, 01:23:05,VALID,915.817,VALID,0,VALID,97.2367,VALID,0,VALID,19.5258,VALID,24,VALID,1.09961,
2010-11-20, 01:24:05,VALID,915.799,VALID,0,VALID,97.229,VALID,0,VALID,19.5648,VALID,25,VALID,0.796484,
2010-11-20, 01:25:05,VALID,915.791,VALID,0,VALID,97.2443,VALID,0,VALID,19.5858,VALID,25,VALID,0.748438,
2010-11-20, 01:26:05,VALID,915.804,VALID,0,VALID,97.229,VALID,0,VALID,19.5858,VALID,24,VALID,1.07617,
2010-11-20, 01:27:05,VALID,915.803,VALID,0,VALID,97.2367,VALID,0,VALID,19.6038,VALID,24,VALID,0.864844,
2010-11-20, 01:28:05,VALID,915.805,VALID,0,VALID,97.2367,VALID,0,VALID,19.6053,VALID,24,VALID,0.730469,
2010-11-20, 01:29:05,VALID,915.781,VALID,0,VALID,97.229,VALID,0,VALID,19.6248,VALID,301,VALID,0.474219,
2010-11-20, 01:30:05,VALID,915.789,VALID,0,VALID,97.2367,VALID,0,VALID,19.6053,VALID,16,VALID,1.29102,
2010-11-20, 01:31:05,VALID,915.819,VALID,0,VALID,97.2367,VALID,0,VALID,19.5663,VALID,16,VALID,0.856641,
2010-11-20, 01:32:05,VALID,915.783,VALID,0,VALID,97.2367,VALID,0,VALID,19.5663,VALID,16,VALID,1.41016,
2010-11-20, 01:33:05,VALID,915.802,VALID,0,VALID,97.2672,VALID,0,VALID,19.5663,VALID,16,VALID,1.17227,
2010-11-20, 01:34:05,VALID,915.804,VALID,0,VALID,97.2443,VALID,0,VALID,19.5453,VALID,16,VALID,0,
2010-11-20, 01:35:05,VALID,915.781,VALID,0,VALID,97.2519,VALID,0,VALID,19.5663,VALID,16,VALID,1.01797,
2010-11-20, 01:36:05,VALID,915.764,VALID,0,VALID,97.2595,VALID,0,VALID,19.5453,VALID,16,VALID,0.662109,
2010-11-20, 01:37:05,VALID,915.769,VALID,0,VALID,97.2519,VALID,0,VALID,19.5453,VALID,16,VALID,0.822656,
2010-11-20, 01:38:05,VALID,915.765,VALID,0,VALID,97.2519,VALID,0,VALID,19.5453,VALID,16,VALID,0.734766,
2010-11-20, 01:39:05,VALID,915.742,VALID,0,VALID,97.2672,VALID,0,VALID,19.5273,VALID,16,VALID,0.860156,
2010-11-20, 01:40:05,VALID,915.774,VALID,0,VALID,97.2367,VALID,0,VALID,19.5273,VALID,16,VALID,1.01133,
2010-11-20, 01:41:05,VALID,915.745,VALID,0,VALID,97.2595,VALID,0,VALID,19.4868,VALID,15,VALID,0.923047,
2010-11-20, 01:42:05,VALID,915.782,VALID,0,VALID,97.2519,VALID,0,VALID,19.4673,VALID,315,VALID,1.28633,
2010-11-20, 01:43:05,VALID,915.782,VALID,0,VALID,97.2824,VALID,0,VALID,19.4688,VALID,306,VALID,0.959375,
2010-11-20, 01:44:05,VALID,915.772,VALID,0,VALID,97.2672,VALID,0,VALID,19.4688,VALID,17,VALID,1.11133,
2010-11-20, 01:45:05,VALID,915.774,VALID,0,VALID,97.2977,VALID,0,VALID,19.4673,VALID,356,VALID,1.15547,
2010-11-20, 01:46:05,VALID,915.751,VALID,0,VALID,97.2748,VALID,0,VALID,19.4883,VALID,6,VALID,1.0707,
2010-11-20, 01:47:05,VALID,915.73,VALID,0,VALID,97.3053,VALID,0,VALID,19.5063,VALID,6,VALID,0.040625,
2010-11-20, 01:48:05,VALID,915.732,VALID,0,VALID,97.29,VALID,0,VALID,19.5078,VALID,5,VALID,0.955078,
2010-11-20, 01:49:05,VALID,915.684,VALID,0,VALID,97.29,VALID,0,VALID,19.4688,VALID,341,VALID,0.832812,
2010-11-20, 01:50:05,VALID,915.695,VALID,0,VALID,97.2977,VALID,0,VALID,19.4478,VALID,350,VALID,1.23164,
2010-11-20, 01:51:05,VALID,915.677,VALID,0,VALID,97.3053,VALID,0,VALID,19.4883,VALID,54,VALID,1.07148,
2010-11-20, 01:52:05,VALID,915.642,VALID,0,VALID,97.3053,VALID,0,VALID,19.5273,VALID,53,VALID,0.417188,
2010-11-20, 01:53:05,VALID,915.615,VALID,0,VALID,97.3053,VALID,0,VALID,19.4673,VALID,17,VALID,0.821484,
2010-11-20, 01:54:05,VALID,915.576,VALID,0,VALID,97.2977,VALID,0,VALID,19.4493,VALID,3,VALID,1.31875,
2010-11-20, 01:55:05,VALID,915.571,VALID,0,VALID,97.3205,VALID,0,VALID,19.4688,VALID,3,VALID,1.05273,
2010-11-20, 01:56:05,VALID,915.594,VALID,0,VALID,97.3281,VALID,0,VALID,19.4883,VALID,3,VALID,1.43125,
2010-11-20, 01:57:05,VALID,915.563,VALID,0,VALID,97.3053,VALID,0,VALID,19.4493,VALID,27,VALID,1.31328,
2010-11-20, 01:58:05,VALID,915.573,VALID,0,VALID,97.3205,VALID,0,VALID,19.4688,VALID,27,VALID,1.35703,
2010-11-20, 01:59:05,VALID,915.555,VALID,0,VALID,97.3281,VALID,0,VALID,19.4103,VALID,17,VALID,1.66758,
2010-11-20, 02:00:05,VALID,915.518,VALID,0,VALID,97.3281,VALID,0,VALID,19.3893,VALID,24,VALID,1.21797,
2010-11-20, 02:01:05,VALID,915.487,VALID,0,VALID,97.3281,VALID,0,VALID,19.4298,VALID,24,VALID,0.683594,
2010-11-20, 02:02:05,VALID,915.498,VALID,0,VALID,97.3434,VALID,0,VALID,19.4493,VALID,24,VALID,0.564453,
2010-11-20, 02:03:05,VALID,915.454,VALID,0,VALID,97.3281,VALID,0,VALID,19.4088,VALID,24,VALID,0.941016,
2010-11-20, 02:04:05,VALID,915.415,VALID,0,VALID,97.3434,VALID,0,VALID,19.4493,VALID,24,VALID,0.768359,
2010-11-20, 02:05:05,VALID,915.411,VALID,0,VALID,97.3434,VALID,0,VALID,19.4493,VALID,24,VALID,0.796094,
2010-11-20, 02:06:05,VALID,915.412,VALID,0,VALID,97.351,VALID,0,VALID,19.4478,VALID,24,VALID,1.01055,
2010-11-20, 02:07:05,VALID,915.398,VALID,0,VALID,97.3663,VALID,0,VALID,19.4883,VALID,24,VALID,0.507031,
2010-11-20, 02:08:05,VALID,915.433,VALID,0,VALID,97.351,VALID,0,VALID,19.4298,VALID,24,VALID,0.699219,
2010-11-20, 02:09:05,VALID,915.39,VALID,0,VALID,97.3434,VALID,0,VALID,19.4298,VALID,24,VALID,0.739453,
2010-11-20, 02:10:05,VALID,915.402,VALID,0,VALID,97.3586,VALID,0,VALID,19.3908,VALID,24,VALID,1.29805,
2010-11-20, 02:11:05,VALID,915.383,VALID,0,VALID,97.3281,VALID,0,VALID,19.4103,VALID,39,VALID,1.71914,
2010-11-20, 02:12:05,VALID,915.377,VALID,0,VALID,97.3663,VALID,0,VALID,19.3908,VALID,44,VALID,1.07734,
2010-11-20, 02:13:05,VALID,915.355,VALID,0,VALID,97.3586,VALID,0,VALID,19.3908,VALID,44,VALID,0.926562,
2010-11-20, 02:14:05,VALID,915.374,VALID,0,VALID,97.3586,VALID,0,VALID,19.3893,VALID,44,VALID,0.746484,
2010-11-20, 02:15:05,VALID,915.367,VALID,0,VALID,97.3739,VALID,0,VALID,19.3503,VALID,43,VALID,0.782422,
2010-11-20, 02:16:05,VALID,915.348,VALID,0,VALID,97.351,VALID,0,VALID,19.3713,VALID,44,VALID,0.385156,
2010-11-20, 02:17:05,VALID,915.355,VALID,0,VALID,97.3586,VALID,0,VALID,19.4103,VALID,44,VALID,0.501172,
2010-11-20, 02:18:05,VALID,915.342,VALID,0,VALID,97.3891,VALID,0,VALID,19.4103,VALID,44,VALID,0.305078,
2010-11-20, 02:19:05,VALID,915.334,VALID,0,VALID,97.3891,VALID,0,VALID,19.4298,VALID,44,VALID,0.665625,
2010-11-20, 02:20:05,VALID,915.367,VALID,0,VALID,97.3663,VALID,0,VALID,19.4103,VALID,44,VALID,0.714453,
2010-11-20, 02:21:05,VALID,915.343,VALID,0,VALID,97.3968,VALID,0,VALID,19.4298,VALID,44,VALID,0.794922,
2010-11-20, 02:22:05,VALID,915.325,VALID,0,VALID,97.3815,VALID,0,VALID,19.4313,VALID,44,VALID,0.819922,
2010-11-20, 02:23:05,VALID,915.344,VALID,0,VALID,97.3739,VALID,0,VALID,19.3908,VALID,44,VALID,0.583594,
2010-11-20, 02:24:05,VALID,915.296,VALID,0,VALID,97.3739,VALID,0,VALID,19.4103,VALID,44,VALID,0.378516,
2010-11-20, 02:25:05,VALID,915.297,VALID,0,VALID,97.3663,VALID,0,VALID,19.4103,VALID,43,VALID,0.00664063,
2010-11-20, 02:26:05,VALID,915.273,VALID,0,VALID,97.3663,VALID,0,VALID,19.3908,VALID,38,VALID,0.614453,
2010-11-20, 02:27:05,VALID,915.266,VALID,0,VALID,97.3815,VALID,0,VALID,19.3713,VALID,38,VALID,0.370703,
2010-11-20, 02:28:05,VALID,915.233,VALID,0,VALID,97.3815,VALID,0,VALID,19.3908,VALID,38,VALID,0.189844,
2010-11-20, 02:29:05,VALID,915.245,VALID,0,VALID,97.3586,VALID,0,VALID,19.3713,VALID,38,VALID,1.04141,
2010-11-20, 02:30:05,VALID,915.225,VALID,0,VALID,97.3815,VALID,0,VALID,19.3518,VALID,38,VALID,1.225,
2010-11-20, 02:31:05,VALID,915.202,VALID,0,VALID,97.3891,VALID,0,VALID,19.3728,VALID,38,VALID,0.609766,
2010-11-20, 02:32:05,VALID,915.193,VALID,0,VALID,97.3739,VALID,0,VALID,19.3518,VALID,38,VALID,0.911719,
2010-11-20, 02:33:05,VALID,915.197,VALID,0,VALID,97.4044,VALID,0,VALID,19.3713,VALID,38,VALID,0.334375,
2010-11-20, 02:34:05,VALID,915.198,VALID,0,VALID,97.4044,VALID,0,VALID,19.3908,VALID,38,VALID,0.486328,
2010-11-20, 02:35:05,VALID,915.193,VALID,0,VALID,97.4196,VALID,0,VALID,19.4088,VALID,38,VALID,0,
2010-11-20, 02:36:05,VALID,915.166,VALID,0,VALID,97.4196,VALID,0,VALID,19.4493,VALID,38,VALID,0.290625,
2010-11-20, 02:37:05,VALID,915.153,VALID,0,VALID,97.4196,VALID,0,VALID,19.4298,VALID,38,VALID,0.00585938,
2010-11-20, 02:38:05,VALID,915.135,VALID,0,VALID,97.4196,VALID,0,VALID,19.3698,VALID,38,VALID,0,
2010-11-20, 02:39:05,VALID,915.1,VALID,0,VALID,97.3891,VALID,0,VALID,19.3713,VALID,38,VALID,0,
2010-11-20, 02:40:05,VALID,915.087,VALID,0,VALID,97.4044,VALID,0,VALID,19.3518,VALID,38,VALID,0.211719,
2010-11-20, 02:41:05,VALID,915.106,VALID,0,VALID,97.4044,VALID,0,VALID,19.3323,VALID,38,VALID,0.00820312,
2010-11-20, 02:42:05,VALID,915.091,VALID,0,VALID,97.4044,VALID,0,VALID,19.3323,VALID,38,VALID,0.443359,
2010-11-20, 02:43:05,VALID,915.08,VALID,0,VALID,97.4044,VALID,0,VALID,19.3113,VALID,38,VALID,0,
2010-11-20, 02:44:05,VALID,915.087,VALID,0,VALID,97.4196,VALID,0,VALID,19.3128,VALID,38,VALID,0,
2010-11-20, 02:45:05,VALID,915.071,VALID,0,VALID,97.4273,VALID,0,VALID,19.3518,VALID,38,VALID,0.00234375,
2010-11-20, 02:46:05,VALID,915.067,VALID,0,VALID,97.412,VALID,0,VALID,19.3323,VALID,38,VALID,0.175781,
2010-11-20, 02:47:05,VALID,915.062,VALID,0,VALID,97.4273,VALID,0,VALID,19.3323,VALID,38,VALID,0,
2010-11-20, 02:48:05,VALID,915.091,VALID,0,VALID,97.4273,VALID,0,VALID,19.3518,VALID,38,VALID,0,
2010-11-20, 02:49:05,VALID,915.091,VALID,0,VALID,97.412,VALID,0,VALID,19.3323,VALID,38,VALID,0,
2010-11-20, 02:50:05,VALID,915.068,VALID,0,VALID,97.412,VALID,0,VALID,19.3518,VALID,38,VALID,0,
2010-11-20, 02:51:05,VALID,915.047,VALID,0,VALID,97.4273,VALID,0,VALID,19.3713,VALID,38,VALID,0.0964844,
2010-11-20, 02:52:05,VALID,915.07,VALID,0,VALID,97.4425,VALID,0,VALID,19.3308,VALID,38,VALID,0.190625,
2010-11-20, 02:53:05,VALID,915.032,VALID,0,VALID,97.4501,VALID,0,VALID,19.3698,VALID,38,VALID,0,
2010-11-20, 02:54:05,VALID,915.024,VALID,0,VALID,97.4501,VALID,0,VALID,19.4493,VALID,38,VALID,0,
2010-11-20, 02:55:05,VALID,915.021,VALID,0,VALID,97.4196,VALID,0,VALID,19.3713,VALID,357,VALID,0.769922,
2010-11-20, 02:56:05,VALID,915.046,VALID,0,VALID,97.4196,VALID,0,VALID,19.3518,VALID,255,VALID,0.519922,
2010-11-20, 02:57:05,VALID,915.034,VALID,0,VALID,97.412,VALID,0,VALID,19.3128,VALID,255,VALID,0,
2010-11-20, 02:58:05,VALID,915.042,VALID,0,VALID,97.4425,VALID,0,VALID,19.3128,VALID,255,VALID,0,
2010-11-20, 02:59:05,VALID,915.047,VALID,0,VALID,97.4425,VALID,0,VALID,19.3713,VALID,255,VALID,0,
2010-11-20, 03:00:05,VALID,915.016,VALID,0,VALID,97.4425,VALID,0,VALID,19.3908,VALID,255,VALID,0,
2010-11-20, 03:01:05,VALID,915.044,VALID,0,VALID,97.4501,VALID,0,VALID,19.3518,VALID,360,VALID,0,
2010-11-20, 03:02:05,VALID,915.029,VALID,0,VALID,97.4349,VALID,0,VALID,19.3518,VALID,31,VALID,0,
2010-11-20, 03:03:05,VALID,915.025,VALID,0,VALID,97.4501,VALID,0,VALID,19.3713,VALID,36,VALID,0,
2010-11-20, 03:04:05,VALID,915.025,VALID,0,VALID,97.4425,VALID,0,VALID,19.3908,VALID,36,VALID,0,
2010-11-20, 03:05:05,VALID,914.999,VALID,0,VALID,97.4501,VALID,0,VALID,19.3908,VALID,36,VALID,0,
2010-11-20, 03:06:05,VALID,915,VALID,0,VALID,97.4501,VALID,0,VALID,19.3908,VALID,36,VALID,0,
2010-11-20, 03:07:05,VALID,914.995,VALID,0,VALID,97.4577,VALID,0,VALID,19.3893,VALID,36,VALID,0,
2010-11-20, 03:08:05,VALID,914.984,VALID,0,VALID,97.4501,VALID,0,VALID,19.3503,VALID,36,VALID,0,
2010-11-20, 03:09:05,VALID,914.98,VALID,0,VALID,97.4577,VALID,0,VALID,19.3713,VALID,36,VALID,0,
2010-11-20, 03:10:05,VALID,914.96,VALID,0,VALID,97.4501,VALID,0,VALID,19.3908,VALID,36,VALID,0,
2010-11-20, 03:11:05,VALID,914.955,VALID,0,VALID,97.4501,VALID,0,VALID,19.3713,VALID,36,VALID,0,
2010-11-20, 03:12:05,VALID,914.946,VALID,0,VALID,97.4349,VALID,0,VALID,19.3713,VALID,36,VALID,0,
2010-11-20, 03:13:05,VALID,914.938,VALID,0,VALID,97.4501,VALID,0,VALID,19.3503,VALID,36,VALID,0,
2010-11-20, 03:14:05,VALID,914.957,VALID,0,VALID,97.4425,VALID,0,VALID,19.3908,VALID,36,VALID,0,
2010-11-20, 03:15:05,VALID,914.977,VALID,0,VALID,97.4425,VALID,0,VALID,19.3698,VALID,36,VALID,0,
2010-11-20, 03:16:05,VALID,914.929,VALID,0,VALID,97.4577,VALID,0,VALID,19.4103,VALID,36,VALID,0,
2010-11-20, 03:17:05,VALID,914.952,VALID,0,VALID,97.4501,VALID,0,VALID,19.3908,VALID,36,VALID,0,
2010-11-20, 03:18:05,VALID,914.913,VALID,0,VALID,97.4501,VALID,0,VALID,19.3908,VALID,36,VALID,0,
2010-11-20, 03:19:05,VALID,914.957,VALID,0,VALID,97.4654,VALID,0,VALID,19.4103,VALID,36,VALID,0,
2010-11-20, 03:20:05,VALID,914.927,VALID,0,VALID,97.4425,VALID,0,VALID,19.4313,VALID,34,VALID,0.21875,
2010-11-20, 03:21:05,VALID,914.925,VALID,0,VALID,97.4349,VALID,0,VALID,19.3323,VALID,351,VALID,0.841797,
2010-11-20, 03:22:05,VALID,914.9,VALID,0,VALID,97.4654,VALID,0,VALID,19.3128,VALID,351,VALID,0.918359,
2010-11-20, 03:23:04,VALID,914.897,VALID,0,VALID,97.4349,VALID,0,VALID,19.2933,VALID,359,VALID,1.60664,
2010-11-20, 03:24:04,VALID,914.898,VALID,0,VALID,97.4577,VALID,0,VALID,19.2738,VALID,346,VALID,0.916406,
2010-11-20, 03:25:04,VALID,914.864,VALID,0,VALID,97.4654,VALID,0,VALID,19.2723,VALID,40,VALID,1.59375,
2010-11-20, 03:26:04,VALID,914.869,VALID,0,VALID,97.4654,VALID,0,VALID,19.2723,VALID,35,VALID,1.09922,
2010-11-20, 03:27:04,VALID,914.854,VALID,0,VALID,97.4501,VALID,0,VALID,19.2738,VALID,16,VALID,1.6418,
2010-11-20, 03:28:04,VALID,914.862,VALID,0,VALID,97.4501,VALID,0,VALID,19.2543,VALID,11,VALID,1.15195,
2010-11-20, 03:29:04,VALID,914.842,VALID,0,VALID,97.473,VALID,0,VALID,19.2933,VALID,11,VALID,1.30273,
2010-11-20, 03:30:04,VALID,914.842,VALID,0,VALID,97.4806,VALID,0,VALID,19.2738,VALID,11,VALID,0.792188,
2010-11-20, 03:31:04,VALID,914.829,VALID,0,VALID,97.473,VALID,0,VALID,19.2723,VALID,11,VALID,0.59375,
2010-11-20, 03:32:04,VALID,914.822,VALID,0,VALID,97.4654,VALID,0,VALID,19.2723,VALID,11,VALID,0.450781,
2010-11-20, 03:33:04,VALID,914.841,VALID,0,VALID,97.4654,VALID,0.107441,VALID,19.2528,VALID,11,VALID,0,
2010-11-20, 03:34:04,VALID,914.854,VALID,0,VALID,97.4654,VALID,0,VALID,19.2528,VALID,11,VALID,0.700391,
2010-11-20, 03:35:04,VALID,914.871,VALID,0,VALID,97.4577,VALID,0,VALID,19.2723,VALID,11,VALID,0.749609,
2010-11-20, 03:36:04,VALID,914.85,VALID,0,VALID,97.473,VALID,0,VALID,19.2334,VALID,11,VALID,1.29258,
2010-11-20, 03:37:04,VALID,914.857,VALID,0,VALID,97.4654,VALID,0.107441,VALID,19.2738,VALID,11,VALID,0.93125,
2010-11-20, 03:38:04,VALID,914.88,VALID,0,VALID,97.473,VALID,0,VALID,19.2723,VALID,11,VALID,0.970312,
2010-11-20, 03:39:04,VALID,914.883,VALID,0,VALID,97.4882,VALID,0,VALID,19.2918,VALID,11,VALID,0.584766,
2010-11-20, 03:40:04,VALID,914.875,VALID,0,VALID,97.473,VALID,0.107441,VALID,19.3128,VALID,11,VALID,0.672266,
2010-11-20, 03:41:04,VALID,914.873,VALID,0,VALID,97.4654,VALID,0,VALID,19.2723,VALID,11,VALID,1.07852,
2010-11-20, 03:42:04,VALID,914.887,VALID,0,VALID,97.4882,VALID,0,VALID,19.2723,VALID,11,VALID,0.790625,
2010-11-20, 03:43:04,VALID,914.894,VALID,0,VALID,97.4806,VALID,0.107441,VALID,19.2528,VALID,11,VALID,0.298438,
2010-11-20, 03:44:04,VALID,914.89,VALID,0,VALID,97.473,VALID,0,VALID,19.2528,VALID,349,VALID,0.988672,
2010-11-20, 03:45:04,VALID,914.903,VALID,0,VALID,97.4577,VALID,0.107441,VALID,19.2139,VALID,6,VALID,0.853516,
2010-11-20, 03:46:04,VALID,914.909,VALID,0,VALID,97.4882,VALID,0,VALID,19.1944,VALID,6,VALID,1.05977,
2010-11-20, 03:47:04,VALID,914.898,VALID,0,VALID,97.5035,VALID,0,VALID,19.2139,VALID,6,VALID,0.561328,
2010-11-20, 03:48:04,VALID,914.889,VALID,0,VALID,97.4882,VALID,0,VALID,19.2528,VALID,6,VALID,0.878906,
2010-11-20, 03:49:04,VALID,914.897,VALID,0,VALID,97.4806,VALID,0,VALID,19.2528,VALID,6,VALID,0.975781,